Location: Unspecified
(0.0000°N, 0.0000°E)
Time: 17:23:00
(UTC+00:00)

STARLINK 1056 - Pass Details

Date: 20 January 2020
Orbit: 549 x 551 km, 53.0° (Epoch: 23 January)

Event Time Altitude Azimuth Distance (km) Brightness Sun altitude
Rises 04:58:57 0° 198° (SSW) 2,734 7.2 -16.8°
Reaches altitude 10° 05:01:23 10° 187° (S) 1,835 6.5 -16.3°
Maximum altitude 05:05:06 31° 124° (SE) 986 5.7 -15.4°
Drops below altitude 10° 05:08:47 10° 61° (ENE) 1,822 6.8 -14.5°
Sets 05:11:11 0° 51° (NE) 2,711 7.6 -14.0°
